Location: Grossmotten
(48.5500°N, 15.3833°E)
Time: 19:02:59
(UTC+00:00)

Cosmos 2082 Rocket - Pass Details

Date: 15 November 2019
Orbit: 833 x 853 km, 71.0° (Epoch: 14 December)

Event Time Altitude Azimuth Distance (km) Brightness Sun altitude
Exits shadow 04:51:47 14° 260° (W) 2,232 3.8 -12.3°
Maximum altitude 04:55:49 28° 314° (NW) 1,543 3.1 -11.6°
Drops below altitude 10° 05:00:44 10° 13° (NNE) 2,490 4.6 -10.8°
Sets 05:03:33 0° 25° (NNE) 3,427 5.5 -10.4°
